Regional Weather Roundup
Issued by NWS

Home | Current Version | Previous Version | Graphics & Text | Print | Product List | Glossary On
Versions: 1 2 3 4 5 6 7 8 9 10 11 12 13 14 15 16 17 18 19 20 21 22 23 24 25 26 27 28 29 30 31 32 33 34 35 36 37 38 39 40 41 42 43 44 45 46 47 48 49 50
000
ASUS43 KIND 221709
RWRIN

WEATHER ROUNDUP FOR INDIANA
NATIONAL WEATHER SERVICE INDIANAPOLIS IN
100 PM EDT WED MAR 22 2017

NOTE: "FAIR" INDICATES FEW OR NO CLOUDS BELOW 12,000 FEET WITH NO
SIGNIFICANT WEATHER AND/OR OBSTRUCTIONS TO VISIBILITY.

* - STATION DOES NOT REPORT WEATHER SUCH AS PRECIPITATION OR FOG.

+ - STATION NOT QUALITY CONTROLLED BY THE NATIONAL WEATHER SERVICE.
    USE DATA WITH CAUTION...ESPECIALLY DEWPOINT AND RELATIVE
    HUMIDITY OBSERVATIONS.

INZ001>003-010>013-019-020-221800-
NORTHWEST INDIANA

CITY           SKY/WX    TMP DP  RH WIND       PRES   REMARKS
GARY /AIRPORT/ MOSUNNY   32  16  51 NE12G23   30.61R WCI  23
KNOX *+        SUNNY     32 -11  15 NE5       30.58S WCI  27
LA PORTE +     SUNNY     31  15  52 N8        30.58F WCI  23
MICHIGAN CITY+ SUNNY     32  12  43 E5        30.59F WCI  27
MONTICELLO +   SUNNY     32  13  46 E8        30.57S WCI  24
RENSSELAER +   SUNNY     34  18  51 E8        30.58F WCI  27
VALPARAISO     SUNNY     32  13  45 CALM      30.58S

$$

LMZ046-743>745-221800-
SOUTHERN LAKE MICHIGAN

STATION/POSITION TIME  TEMP    WIND        PRES    WAVE
                       AIR SEA DIR/SP/G            HT
                 (UTC) (F)     (DEG/KT/KT) (MB)    (FT)
BURNS HARBOR     1615   27      50/ 11/ 18 1036.2S
MICHIGAN CITY    1640   25      20/ 13/ 14   N/A

$$

INZ004-005-014>016-021>024-221800-
NORTH CENTRAL INDIANA

CITY           SKY/WX    TMP DP  RH WIND       PRES   REMARKS
ELKHART        SUNNY     30   9  40 E6        30.57F WCI  24
GOSHEN         SUNNY     30  10  43 NE8       30.57F WCI  22
LOGANSPORT +   SUNNY     32  18  55 E10       30.58S WCI  24
PERU/GRISSOM   SUNNY     31  15  51 E7        30.54F WCI  24
ROCHESTER +    SUNNY     34  12  40 NE9       30.57F WCI  26
SOUTH BEND     SUNNY     30  10  43 NE6       30.58S WCI  24
WARSAW +       SUNNY     30  12  47 E8        30.57S WCI  23

$$

INZ006>009-017-018-025>027-221800-
NORTHEAST INDIANA

CITY           SKY/WX    TMP DP  RH WIND       PRES   REMARKS
ANGOLA *+      SUNNY     28  10  47 N3        30.55S
AUBURN +       SUNNY     32  10  40 NE5       30.57S WCI  27
FORT WAYNE     MOSUNNY   31  13  47 E10       30.57S WCI  22
HUNTINGTON +   SUNNY     31  14  48 E7        30.57S WCI  24
KENDALLVILLE + SUNNY     30  10  42 NE6       30.56S WCI  24

$$

INZ028-029-035-036-043>045-051>053-221800-
WEST CENTRAL INDIANA

CITY           SKY/WX    TMP DP  RH WIND       PRES   REMARKS
CRAWFORDSVL +  SUNNY     33  17  51 NE12G18   30.54S WCI  24
GREENCASTLE +  SUNNY     36  14  41 NE10G17   30.52F
LAFAYETTE      SUNNY     33  16  49 NE9       30.57S WCI  25
TERRE HAUTE    SUNNY     38  16  40 NE12      30.52F

$$

INZ030>032-037>040-046>048-054>057-064-065-221800-
CENTRAL INDIANA

CITY           SKY/WX    TMP DP  RH WIND       PRES   REMARKS
ANDERSON       SUNNY     32  16  51 E6        30.55  WCI  26
CP ATTERBURY + SUNNY     36  18  48 E10       30.54R
COLUMBUS       SUNNY     36  18  48 MISG      30.53S
FRANKFORT +    MOSUNNY   34  19  54 E14       30.57S WCI  25
GREENWOOD *+   SUNNY     34  19  55 E10G17    30.53S WCI  26
INDIANAPOLIS   MOSUNNY   35  15  44 E14       30.53S WCI  26
-EAGLE CREEK   SUNNY     35  16  45 E10       30.53S WCI  27
KOKOMO +       SUNNY     31  20  63 E10       30.57S WCI  22
MARION +       SUNNY     30  18  59 E14       30.56S WCI  20
MT COMFORT *+  SUNNY     34  18  51 NE6G16    30.54S WCI  29
SHELBYVILLE    SUNNY     35  18  49 NE10      30.53R WCI  27
ZIONSVILLE +   SUNNY     31  19  60 NE10      30.55S WCI  22

$$

INZ033-034-041-042-049-050-058-059-221800-
EAST CENTRAL INDIANA

CITY           SKY/WX    TMP DP  RH WIND       PRES   REMARKS
MUNCIE         SUNNY     32  17  54 NE12      30.55R WCI  23
RICHMOND +     SUNNY     32  19  59 E10G18    30.52S WCI  24

$$

INZ060-061-067>069-081>083-085>088-221800-
SOUTHWEST INDIANA

CITY           SKY/WX    TMP DP  RH WIND       PRES   REMARKS
EVANSVILLE     SUNNY     48  19  31 E12G22    30.46S
HUNTINGBURG *+ SUNNY     44  23  43 E9        30.47S
WASHINGTON +   SUNNY     43  18  37 MISG      30.48F

$$

INZ062-063-066-070>080-084-089>092-221800-
SOUTH CENTRAL AND SOUTHEAST INDIANA

CITY           SKY/WX    TMP DP  RH WIND       PRES   REMARKS
BLOOMINGTON    SUNNY     40  10  29 E12G20    30.49S
MADISON *+     SUNNY     39  14  35 NE15      30.50S
NORTH VERNON + SUNNY     36  18  48 NE14      30.51R
SEYMOUR +      SUNNY     39  18  41 NE15      30.51R

$$





USA.gov is the U.S. government's official web portal to all federal, state and local government web resources and services.